"Time","A4260518","A4260518","A4260518"
"and",100.00,3000.00,3500.00
"Date","Water Level (m)","Cond @25 degC(uS/cm)","Water Temp (Deg C)"
"","Mean","Mean","Mean"
09:00:00 30/08/2007,6.19,663.085,
09:00:00 31/08/2007,6.19,666.167,
09:00:00 01/09/2007,6.19,670.159,
09:00:00 02/09/2007,6.174,669.299,
09:00:00 03/09/2007,6.165,668.628,
09:00:00 04/09/2007,6.17,673.25,
09:00:00 05/09/2007,6.165,679.248,
09:00:00 06/09/2007,6.16,684.168,
09:00:00 07/09/2007,6.16,688.707,
09:00:00 08/09/2007,6.16,692.623,
09:00:00 09/09/2007,6.16,694.539,
09:00:00 10/09/2007,6.149,693.917,
09:00:00 11/09/2007,6.14,691.926,
09:00:00 12/09/2007,6.151,695.869,
09:00:00 13/09/2007,6.165,701.097,
09:00:00 14/09/2007,6.165,711.731,
09:00:00 15/09/2007,6.16,717.84,
09:00:00 16/09/2007,6.149,718.158,
09:00:00 17/09/2007,6.151,716.762,
09:00:00 18/09/2007,6.16,718.316,
09:00:00 19/09/2007,6.155,,
09:00:00 20/09/2007,,,
09:00:00 21/09/2007,,,
09:00:00 22/09/2007,,,
09:00:00 23/09/2007,,,
09:00:00 24/09/2007,,,
09:00:00 25/09/2007,,,
09:00:00 26/09/2007,,,
09:00:00 27/09/2007,,,
09:00:00 28/09/2007,6.165,702.164,
09:00:00 29/09/2007,6.175,704.542,
09:00:00 30/09/2007,6.185,705.544,
09:00:00 01/10/2007,6.201,708.162,
09:00:00 02/10/2007,6.21,709.463,
09:00:00 03/10/2007,6.188,711.155,
09:00:00 04/10/2007,6.175,708.131,
09:00:00 05/10/2007,6.175,702.918,
09:00:00 06/10/2007,6.175,701.998,
09:00:00 07/10/2007,6.18,700.92,
09:00:00 08/10/2007,6.175,701.08,
09:00:00 09/10/2007,6.17,700.918,
09:00:00 10/10/2007,6.17,699.997,
09:00:00 11/10/2007,6.17,697.832,
09:00:00 12/10/2007,6.17,693.289,
09:00:00 13/10/2007,6.17,686.675,
09:00:00 14/10/2007,6.17,684.082,
09:00:00 15/10/2007,6.165,685.0,
09:00:00 16/10/2007,6.16,685.0,
09:00:00 17/10/2007,6.16,685.002,
09:00:00 18/10/2007,6.16,686.068,
09:00:00 19/10/2007,6.16,678.345,
09:00:00 20/10/2007,6.16,669.923,
09:00:00 21/10/2007,6.16,671.727,
09:00:00 22/10/2007,6.16,688.063,
09:00:00 23/10/2007,6.165,701.087,
09:00:00 24/10/2007,6.17,705.247,
09:00:00 25/10/2007,6.175,709.082,
09:00:00 26/10/2007,6.191,710.543,
09:00:00 27/10/2007,6.2,712.625,
09:00:00 28/10/2007,6.2,715.622,
09:00:00 29/10/2007,6.2,716.997,
09:00:00 30/10/2007,6.205,715.379,
09:00:00 31/10/2007,6.199,715.067,
09:00:00 01/11/2007,6.19,706.8,
09:00:00 02/11/2007,6.195,695.207,
09:00:00 03/11/2007,6.211,687.675,
09:00:00 04/11/2007,6.22,685.075,
09:00:00 05/11/2007,6.225,681.669,
09:00:00 06/11/2007,6.214,675.289,
09:00:00 07/11/2007,6.2,668.665,
09:00:00 08/11/2007,6.195,659.593,
09:00:00 09/11/2007,6.185,655.536,
09:00:00 10/11/2007,6.169,652.743,
09:00:00 11/11/2007,6.16,642.414,
09:00:00 12/11/2007,6.16,626.808,
09:00:00 13/11/2007,6.149,620.078,
09:00:00 14/11/2007,6.151,618.834,
09:00:00 15/11/2007,6.155,615.368,
09:00:00 16/11/2007,6.15,608.048,
09:00:00 17/11/2007,6.15,600.829,
09:00:00 18/11/2007,6.155,594.128,
09:00:00 19/11/2007,6.155,587.295,
09:00:00 20/11/2007,6.15,584.464,
09:00:00 21/11/2007,6.155,587.238,
09:00:00 22/11/2007,6.171,585.679,
09:00:00 23/11/2007,6.18,585.247,
09:00:00 24/11/2007,6.18,589.623,
09:00:00 25/11/2007,6.185,591.532,
09:00:00 26/11/2007,6.19,586.591,
09:00:00 27/11/2007,6.19,581.457,
09:00:00 28/11/2007,6.19,579.905,
09:00:00 29/11/2007,6.19,570.885,
09:00:00 30/11/2007,6.201,561.832,
09:00:00 01/12/2007,6.21,556.747,
09:00:00 02/12/2007,6.21,549.127,
09:00:00 03/12/2007,6.215,541.201,
09:00:00 04/12/2007,6.204,529.888,
09:00:00 05/12/2007,6.179,523.0,
09:00:00 06/12/2007,6.165,522.999,
09:00:00 07/12/2007,6.149,522.452,
09:00:00 08/12/2007,6.151,517.674,
09:00:00 09/12/2007,6.16,514.53,
09:00:00 10/12/2007,6.16,507.968,
09:00:00 11/12/2007,6.16,500.918,
09:00:00 12/12/2007,6.16,500.001,
09:00:00 13/12/2007,6.149,500.536,
09:00:00 14/12/2007,6.124,498.299,
09:00:00 15/12/2007,6.105,497.626,
09:00:00 16/12/2007,6.1,501.167,
09:00:00 17/12/2007,6.1,505.157,
09:00:00 18/12/2007,6.1,503.213,
09:00:00 19/12/2007,6.116,498.904,
09:00:00 20/12/2007,6.13,488.791,
09:00:00 21/12/2007,6.135,471.266,
09:00:00 22/12/2007,6.14,463.002,
09:00:00 23/12/2007,6.14,464.074,
09:00:00 24/12/2007,6.135,460.121,
09:00:00 25/12/2007,6.125,448.429,
09:00:00 26/12/2007,6.12,441.995,
09:00:00 27/12/2007,6.115,438.756,
09:00:00 28/12/2007,6.105,436.542,
09:00:00 29/12/2007,6.1,437.541,
09:00:00 30/12/2007,6.1,438.001,
09:00:00 31/12/2007,6.095,438.54,
09:00:00 01/01/2008,6.085,438.455,
09:00:00 02/01/2008,6.08,435.296,
09:00:00 03/01/2008,6.069,433.001,
09:00:00 04/01/2008,6.044,433.544,
09:00:00 05/01/2008,6.025,436.155,
09:00:00 06/01/2008,6.02,432.589,
09:00:00 07/01/2008,6.009,426.378,
09:00:00 08/01/2008,6.005,425.543,
09:00:00 09/01/2008,6.01,427.625,
09:00:00 10/01/2008,6.026,430.621,
09:00:00 11/01/2008,6.045,430.92,
09:00:00 12/01/2008,6.077,431.084,
09:00:00 13/01/2008,6.105,433.625,
09:00:00 14/01/2008,6.105,436.624,
09:00:00 15/01/2008,6.095,439.08,
09:00:00 16/01/2008,6.101,438.916,
09:00:00 17/01/2008,6.115,436.376,
09:00:00 18/01/2008,6.125,433.911,
09:00:00 19/01/2008,6.146,428.674,
09:00:00 20/01/2008,6.171,425.535,
09:00:00 21/01/2008,6.185,422.214,
09:00:00 22/01/2008,6.19,418.454,
09:00:00 23/01/2008,6.195,414.76,
09:00:00 24/01/2008,6.205,414.695,
09:00:00 25/01/2008,6.21,411.59,
09:00:00 26/01/2008,6.205,405.914,
09:00:00 27/01/2008,6.189,402.292,
09:00:00 28/01/2008,6.169,397.298,
09:00:00 29/01/2008,6.155,396.08,
09:00:00 30/01/2008,6.145,395.921,
09:00:00 31/01/2008,6.14,396.622,
09:00:00 01/02/2008,6.14,398.003,
09:00:00 02/02/2008,6.14,399.623,
09:00:00 03/02/2008,6.14,401.54,
09:00:00 04/02/2008,6.14,401.458,
09:00:00 05/02/2008,6.145,400.464,
09:00:00 06/02/2008,6.15,402.707,
09:00:00 07/02/2008,6.155,407.167,
09:00:00 08/02/2008,6.16,411.162,
09:00:00 09/02/2008,6.16,412.451,
09:00:00 10/02/2008,6.16,407.136,
09:00:00 11/02/2008,6.16,405.157,
09:00:00 12/02/2008,6.171,403.211,
09:00:00 13/02/2008,6.18,397.839,
09:00:00 14/02/2008,6.169,397.621,
09:00:00 15/02/2008,6.16,397.92,
09:00:00 16/02/2008,6.16,398.081,
09:00:00 17/02/2008,6.16,398.461,
09:00:00 18/02/2008,6.16,399.079,
09:00:00 19/02/2008,6.16,398.381,
09:00:00 20/02/2008,6.149,399.162,
09:00:00 21/02/2008,6.145,400.463,
09:00:00 22/02/2008,6.15,402.164,
09:00:00 23/02/2008,6.139,404.544,
09:00:00 24/02/2008,6.13,407.171,
09:00:00 25/02/2008,6.13,413.87,
09:00:00 26/02/2008,6.13,419.622,
09:00:00 27/02/2008,6.13,420.461,
09:00:00 28/02/2008,6.135,421.088,
09:00:00 29/02/2008,6.14,425.787,
09:00:00 01/03/2008,6.145,430.082,
09:00:00 02/03/2008,6.15,431.538,
09:00:00 03/03/2008,6.15,430.373,
09:00:00 04/03/2008,6.15,426.299,
09:00:00 05/03/2008,6.145,425.615,
09:00:00 06/03/2008,6.135,422.133,
09:00:00 07/03/2008,6.13,417.997,
09:00:00 08/03/2008,6.13,416.374,
09:00:00 09/03/2008,6.125,412.837,
09:00:00 10/03/2008,6.12,410.996,
09:00:00 11/03/2008,6.115,408.294,
09:00:00 12/03/2008,6.11,404.919,
09:00:00 13/03/2008,6.11,404.543,
09:00:00 14/03/2008,6.105,406.635,
09:00:00 15/03/2008,6.095,416.102,
09:00:00 16/03/2008,6.095,417.053,
09:00:00 17/03/2008,6.095,413.082,
09:00:00 18/03/2008,6.095,413.997,
09:00:00 19/03/2008,6.095,411.839,
09:00:00 20/03/2008,6.09,411.082,
09:00:00 21/03/2008,6.095,412.541,
09:00:00 22/03/2008,6.1,413.003,
09:00:00 23/03/2008,6.1,415.163,
09:00:00 24/03/2008,6.111,416.989,
09:00:00 25/03/2008,6.12,409.97,
09:00:00 26/03/2008,6.131,404.538,
09:00:00 27/03/2008,6.145,403.38,
09:00:00 28/03/2008,6.145,403.624,
09:00:00 29/03/2008,6.14,406.069,
09:00:00 30/03/2008,6.14,398.891,
09:00:00 31/03/2008,6.14,394.156,
09:00:00 01/04/2008,6.14,391.669,
09:00:00 02/04/2008,6.14,385.299,
09:00:00 03/04/2008,6.145,385.154,
09:00:00 04/04/2008,6.155,381.056,
09:00:00 05/04/2008,6.16,378.698,
09:00:00 06/04/2008,6.16,377.212,
09:00:00 07/04/2008,6.16,372.373,
09:00:00 08/04/2008,6.16,368.298,
09:00:00 09/04/2008,6.16,367.082,
09:00:00 10/04/2008,6.16,367.998,
09:00:00 11/04/2008,6.16,366.915,
09:00:00 12/04/2008,6.16,363.839,
09:00:00 13/04/2008,6.16,363.095,
09:00:00 14/04/2008,6.16,372.106,
09:00:00 15/04/2008,6.155,375.21,
09:00:00 16/04/2008,6.15,369.295,
09:00:00 17/04/2008,6.145,366.46,
09:00:00 18/04/2008,6.14,366.538,
09:00:00 19/04/2008,6.14,365.379,
09:00:00 20/04/2008,6.14,365.082,
09:00:00 21/04/2008,6.135,366.541,
09:00:00 22/04/2008,6.13,367.001,
09:00:00 23/04/2008,6.135,367.539,
09:00:00 24/04/2008,6.14,366.915,
09:00:00 25/04/2008,6.145,363.839,
09:00:00 26/04/2008,6.15,363.619,
09:00:00 27/04/2008,6.155,362.844,
09:00:00 28/04/2008,6.171,365.326,
09:00:00 29/04/2008,6.18,369.002,
09:00:00 30/04/2008,6.187,366.138,
09:00:00 01/05/2008,6.188,366.652,16.388
09:00:00 02/05/2008,6.187,372.844,16.251
09:00:00 03/05/2008,6.192,377.087,16.37
09:00:00 04/05/2008,6.201,378.298,16.397
09:00:00 05/05/2008,6.201,374.853,16.28
09:00:00 06/05/2008,6.203,374.435,16.457
09:00:00 07/05/2008,6.202,371.707,16.663
09:00:00 08/05/2008,6.207,371.561,16.678
09:00:00 09/05/2008,6.206,369.518,16.64
09:00:00 10/05/2008,6.203,369.391,16.568
09:00:00 11/05/2008,6.199,367.626,16.583
09:00:00 12/05/2008,6.196,365.689,16.48
09:00:00 13/05/2008,6.189,366.387,16.287
09:00:00 14/05/2008,6.183,365.973,16.247
09:00:00 15/05/2008,6.179,364.996,16.282
09:00:00 16/05/2008,6.173,365.942,16.223
09:00:00 17/05/2008,6.167,368.11,16.078
09:00:00 18/05/2008,6.182,377.263,15.71
09:00:00 19/05/2008,6.189,370.601,15.741
09:00:00 20/05/2008,6.19,373.126,15.83
09:00:00 21/05/2008,6.195,377.283,15.805
09:00:00 22/05/2008,6.201,384.621,15.847
09:00:00 23/05/2008,6.2,376.502,15.863
09:00:00 24/05/2008,6.201,372.611,15.571
09:00:00 25/05/2008,6.2,387.127,15.449
09:00:00 26/05/2008,6.195,390.549,15.221
09:00:00 27/05/2008,6.202,385.028,15.304
09:00:00 28/05/2008,6.204,385.675,15.612
09:00:00 29/05/2008,6.188,382.682,15.404
09:00:00 30/05/2008,6.187,375.637,15.201
09:00:00 31/05/2008,6.188,371.219,14.995
09:00:00 01/06/2008,6.191,394.354,14.894
09:00:00 02/06/2008,6.194,405.38,14.818
09:00:00 03/06/2008,6.195,399.78,14.758
09:00:00 04/06/2008,6.193,411.736,14.55
09:00:00 05/06/2008,6.193,412.808,14.378
09:00:00 06/06/2008,6.201,415.611,14.413
09:00:00 07/06/2008,6.204,414.391,14.396
09:00:00 08/06/2008,6.204,415.344,14.322
09:00:00 09/06/2008,6.209,414.038,14.15
09:00:00 10/06/2008,6.215,414.302,14.128
09:00:00 11/06/2008,6.227,416.704,14.101
09:00:00 12/06/2008,6.253,422.015,14.126
09:00:00 13/06/2008,6.264,428.546,14.103
09:00:00 14/06/2008,6.285,429.973,14.105
09:00:00 15/06/2008,6.292,427.02,14.075
09:00:00 16/06/2008,6.29,424.966,13.829
09:00:00 17/06/2008,6.287,421.315,13.487
09:00:00 18/06/2008,6.282,419.054,13.308
09:00:00 19/06/2008,6.281,417.819,13.189
09:00:00 20/06/2008,6.278,418.948,13.184
09:00:00 21/06/2008,6.276,422.543,13.03
09:00:00 22/06/2008,6.281,428.597,13.099
09:00:00 23/06/2008,6.288,427.733,13.079
09:00:00 24/06/2008,6.299,424.637,13.02
09:00:00 25/06/2008,6.305,421.54,12.919
09:00:00 26/06/2008,6.3,418.684,12.746
09:00:00 27/06/2008,6.302,418.71,12.737
09:00:00 28/06/2008,6.29,417.308,12.598
09:00:00 29/06/2008,6.267,417.208,12.357
09:00:00 30/06/2008,6.249,416.668,12.141
09:00:00 01/07/2008,6.222,423.734,12.014
09:00:00 02/07/2008,6.236,428.373,12.098
09:00:00 03/07/2008,6.231,430.13,12.242
09:00:00 04/07/2008,6.221,432.894,12.18
09:00:00 05/07/2008,6.213,436.749,12.155
09:00:00 06/07/2008,6.211,441.28,11.885
09:00:00 07/07/2008,6.213,446.21,11.919
09:00:00 08/07/2008,6.214,452.567,11.849
09:00:00 09/07/2008,6.231,455.467,11.761
09:00:00 10/07/2008,6.23,454.379,11.683
09:00:00 11/07/2008,6.222,460.209,11.58
09:00:00 12/07/2008,6.225,457.887,11.42
09:00:00 13/07/2008,6.22,453.064,11.259
09:00:00 14/07/2008,6.216,447.606,11.194
09:00:00 15/07/2008,6.213,447.483,11.197
09:00:00 16/07/2008,6.225,450.946,11.28
09:00:00 17/07/2008,6.23,450.899,11.247
09:00:00 18/07/2008,6.216,447.865,11.315
09:00:00 19/07/2008,6.224,448.067,11.274
09:00:00 20/07/2008,6.225,452.611,11.315
09:00:00 21/07/2008,6.222,452.91,11.224
09:00:00 22/07/2008,6.233,453.747,11.183
09:00:00 23/07/2008,6.237,455.495,11.123
09:00:00 24/07/2008,6.242,453.85,11.01
09:00:00 25/07/2008,6.248,452.479,10.766
09:00:00 26/07/2008,6.248,450.308,10.825
09:00:00 27/07/2008,6.247,448.452,10.829
09:00:00 28/07/2008,6.248,447.422,10.87
09:00:00 29/07/2008,6.243,450.133,10.76
09:00:00 30/07/2008,6.222,453.3,10.584
09:00:00 31/07/2008,6.194,456.604,10.526
09:00:00 01/08/2008,6.162,459.306,10.657
09:00:00 02/08/2008,6.147,461.458,10.744
09:00:00 03/08/2008,6.15,463.949,10.829
09:00:00 04/08/2008,6.14,466.909,11.059
09:00:00 05/08/2008,6.144,470.265,11.14
09:00:00 06/08/2008,6.139,471.584,11.337
09:00:00 07/08/2008,6.126,473.76,11.276
09:00:00 08/08/2008,6.13,478.895,11.108
09:00:00 09/08/2008,6.131,479.449,11.121
09:00:00 10/08/2008,6.127,478.809,10.971
09:00:00 11/08/2008,6.139,478.228,11.063
09:00:00 12/08/2008,6.146,476.158,11.116
09:00:00 13/08/2008,6.148,471.625,11.046
09:00:00 14/08/2008,6.171,474.11,11.23
09:00:00 15/08/2008,6.188,476.155,11.256
09:00:00 16/08/2008,6.197,476.914,11.49
09:00:00 17/08/2008,6.206,479.326,11.547
09:00:00 18/08/2008,6.209,483.602,11.585
09:00:00 19/08/2008,6.218,489.197,11.617
09:00:00 20/08/2008,6.223,487.0,11.745
09:00:00 21/08/2008,6.224,490.636,11.67
09:00:00 22/08/2008,6.216,496.34,11.748
09:00:00 23/08/2008,6.187,505.6,11.694
09:00:00 24/08/2008,6.171,514.52,11.785
09:00:00 25/08/2008,6.162,519.537,11.821
09:00:00 26/08/2008,6.143,516.666,11.864
09:00:00 27/08/2008,6.134,512.656,12.328
09:00:00 28/08/2008,6.135,509.35,12.498
09:00:00 29/08/2008,6.137,510.931,12.379
09:00:00 30/08/2008,6.144,512.271,12.17
09:00:00 31/08/2008,6.157,516.444,12.324
09:00:00 01/09/2008,6.156,517.648,12.724
09:00:00 02/09/2008,6.164,522.955,12.846
09:00:00 03/09/2008,6.168,529.639,13.352
09:00:00 04/09/2008,6.167,532.838,13.39
09:00:00 05/09/2008,6.158,534.93,13.459
09:00:00 06/09/2008,6.145,538.853,13.394
09:00:00 07/09/2008,6.128,540.382,13.538
09:00:00 08/09/2008,6.121,538.56,14.407
09:00:00 09/09/2008,6.117,544.836,14.447
09:00:00 10/09/2008,6.114,550.63,14.034
09:00:00 11/09/2008,6.118,551.331,14.159
09:00:00 12/09/2008,6.125,555.862,14.582
09:00:00 13/09/2008,6.116,562.029,15.07
09:00:00 14/09/2008,6.1,575.962,15.623
09:00:00 15/09/2008,6.096,593.572,15.618
09:00:00 16/09/2008,6.087,598.929,15.286
09:00:00 17/09/2008,6.107,597.366,15.471
09:00:00 18/09/2008,6.103,597.777,15.33
09:00:00 19/09/2008,6.1,594.337,15.005
09:00:00 20/09/2008,6.084,584.642,15.466
09:00:00 21/09/2008,6.089,578.503,15.825
09:00:00 22/09/2008,6.091,575.423,16.075
09:00:00 23/09/2008,6.088,574.453,16.016
09:00:00 24/09/2008,6.09,569.514,16.02
09:00:00 25/09/2008,6.091,567.983,15.899
09:00:00 26/09/2008,6.081,569.732,16.18
09:00:00 27/09/2008,6.081,569.91,16.421
09:00:00 28/09/2008,6.071,567.905,16.965
09:00:00 29/09/2008,6.087,573.064,17.573
09:00:00 30/09/2008,6.087,571.249,17.717
09:00:00 01/10/2008,6.081,566.473,17.363
09:00:00 02/10/2008,6.065,570.395,17.259
09:00:00 03/10/2008,6.079,567.49,17.584
09:00:00 04/10/2008,6.089,565.141,18.141
09:00:00 05/10/2008,6.098,561.428,18.25
09:00:00 06/10/2008,6.093,562.848,18.184
09:00:00 07/10/2008,6.096,568.07,18.199
09:00:00 08/10/2008,6.099,568.274,17.972
09:00:00 09/10/2008,6.101,568.562,17.734
09:00:00 10/10/2008,6.106,562.283,17.731
09:00:00 11/10/2008,6.102,561.197,18.34
09:00:00 12/10/2008,6.097,563.56,18.848
09:00:00 13/10/2008,6.087,576.847,19.192
09:00:00 14/10/2008,6.096,573.158,19.47
09:00:00 15/10/2008,6.093,571.843,19.142
09:00:00 16/10/2008,6.09,571.197,19.33
09:00:00 17/10/2008,6.084,567.532,19.389
09:00:00 18/10/2008,6.078,566.915,19.754
09:00:00 19/10/2008,6.07,566.474,20.132
09:00:00 20/10/2008,6.072,562.983,21.117
09:00:00 21/10/2008,6.071,562.214,20.126
09:00:00 22/10/2008,6.067,560.765,19.694
09:00:00 23/10/2008,6.062,557.219,19.84
09:00:00 24/10/2008,6.059,553.047,19.583
09:00:00 25/10/2008,6.051,548.872,19.828
09:00:00 26/10/2008,6.053,547.427,20.008
09:00:00 27/10/2008,6.051,545.484,20.025
09:00:00 28/10/2008,6.067,538.044,20.281
09:00:00 29/10/2008,6.073,533.555,20.709
09:00:00 30/10/2008,6.073,523.651,20.564
09:00:00 31/10/2008,6.048,521.272,20.591
09:00:00 01/11/2008,6.067,510.237,21.186
09:00:00 02/11/2008,6.06,499.917,21.208
09:00:00 03/11/2008,6.06,492.066,20.786
09:00:00 04/11/2008,6.072,485.743,21.246
09:00:00 05/11/2008,6.073,482.831,21.033
09:00:00 06/11/2008,6.067,479.152,21.303
09:00:00 07/11/2008,6.079,473.906,21.438
09:00:00 08/11/2008,6.072,470.044,21.105
09:00:00 09/11/2008,6.079,473.302,21.162
09:00:00 10/11/2008,6.083,477.086,21.068
09:00:00 11/11/2008,6.079,474.224,21.684
09:00:00 12/11/2008,6.068,466.644,21.9
09:00:00 13/11/2008,6.058,455.294,22.485
09:00:00 14/11/2008,6.053,453.347,22.966
09:00:00 15/11/2008,6.079,456.805,23.492
09:00:00 16/11/2008,6.083,455.779,23.218
09:00:00 17/11/2008,6.083,455.716,22.854
09:00:00 18/11/2008,6.082,455.841,23.058
09:00:00 19/11/2008,6.088,455.438,22.724
09:00:00 20/11/2008,6.097,454.104,22.615
09:00:00 21/11/2008,6.094,455.876,22.472
09:00:00 22/11/2008,6.091,454.811,21.952
09:00:00 23/11/2008,6.101,455.058,21.3
09:00:00 24/11/2008,6.104,452.373,21.221
09:00:00 25/11/2008,6.118,447.23,21.223
09:00:00 26/11/2008,6.123,441.357,21.32
09:00:00 27/11/2008,6.129,437.668,21.802
09:00:00 28/11/2008,6.138,436.693,23.351
09:00:00 29/11/2008,6.13,434.055,22.652
09:00:00 30/11/2008,6.117,432.047,21.802
09:00:00 01/12/2008,6.099,431.991,21.843
09:00:00 02/12/2008,6.094,431.89,22.338
09:00:00 03/12/2008,6.091,427.757,22.38
09:00:00 04/12/2008,6.105,428.305,23.346
09:00:00 05/12/2008,6.099,425.169,22.197
09:00:00 06/12/2008,6.088,424.851,22.434
09:00:00 07/12/2008,6.099,423.923,22.496
09:00:00 08/12/2008,6.099,422.261,22.363
09:00:00 09/12/2008,6.093,420.973,21.842
09:00:00 10/12/2008,6.101,421.2,22.868
09:00:00 11/12/2008,6.103,423.077,23.401
09:00:00 12/12/2008,6.105,420.726,22.476
09:00:00 13/12/2008,6.13,420.119,22.42
09:00:00 14/12/2008,6.16,423.659,22.024
09:00:00 15/12/2008,6.176,423.338,21.563
09:00:00 16/12/2008,6.202,420.447,21.551
09:00:00 17/12/2008,6.23,412.565,22.789
09:00:00 18/12/2008,6.242,406.258,22.479
09:00:00 19/12/2008,6.243,405.997,22.741
09:00:00 20/12/2008,6.245,407.859,22.403
09:00:00 21/12/2008,6.23,408.974,22.868
09:00:00 22/12/2008,6.213,407.577,22.244
09:00:00 23/12/2008,6.189,408.954,22.94
09:00:00 24/12/2008,6.174,412.897,23.619
09:00:00 25/12/2008,6.151,414.863,23.422
09:00:00 26/12/2008,6.152,417.27,24.031
09:00:00 27/12/2008,6.143,420.166,24.2
09:00:00 28/12/2008,6.141,423.497,25.616
09:00:00 29/12/2008,6.139,423.724,25.635
09:00:00 30/12/2008,6.135,421.699,24.965
09:00:00 31/12/2008,6.11,420.162,24.494
09:00:00 01/01/2009,6.108,421.572,24.165
09:00:00 02/01/2009,6.113,426.391,24.427
09:00:00 03/01/2009,6.107,426.37,23.906
09:00:00 04/01/2009,6.09,427.49,23.704
09:00:00 05/01/2009,6.079,428.501,24.248
09:00:00 06/01/2009,6.069,430.526,25.519
09:00:00 07/01/2009,6.057,429.631,25.329
09:00:00 08/01/2009,6.055,431.002,25.279
09:00:00 09/01/2009,6.053,431.236,24.182
09:00:00 10/01/2009,6.046,430.989,24.076
09:00:00 11/01/2009,6.044,429.271,24.195
09:00:00 12/01/2009,6.044,427.691,24.415
09:00:00 13/01/2009,6.044,426.857,24.106
09:00:00 14/01/2009,6.032,427.171,24.076
09:00:00 15/01/2009,6.038,426.848,25.886
09:00:00 16/01/2009,6.042,424.95,25.051
09:00:00 17/01/2009,6.032,426.483,24.495
09:00:00 18/01/2009,6.024,427.267,24.422
09:00:00 19/01/2009,6.022,427.01,24.619
09:00:00 20/01/2009,6.019,428.971,24.466
09:00:00 21/01/2009,6.019,432.812,25.625
09:00:00 22/01/2009,6.026,436.41,25.488
09:00:00 23/01/2009,6.018,435.958,25.298
09:00:00 24/01/2009,6.036,439.462,25.068
09:00:00 25/01/2009,6.06,442.66,25.436
09:00:00 26/01/2009,6.062,442.721,25.331
09:00:00 27/01/2009,6.067,446.527,25.846
09:00:00 28/01/2009,6.066,447.179,25.415
09:00:00 29/01/2009,6.054,446.245,25.365
09:00:00 30/01/2009,6.054,448.956,26.457
09:00:00 31/01/2009,6.046,451.612,27.379
09:00:00 01/02/2009,6.036,460.878,29.191
09:00:00 02/02/2009,6.03,470.503,29.387
09:00:00 03/02/2009,6.025,473.167,28.95
09:00:00 04/02/2009,6.017,473.416,28.147
09:00:00 05/02/2009,6.011,474.607,28.224
09:00:00 06/02/2009,6.019,477.258,28.334
09:00:00 07/02/2009,6.021,477.97,27.156
09:00:00 08/02/2009,6.013,474.815,27.077
09:00:00 09/02/2009,6.045,477.175,26.89
09:00:00 10/02/2009,6.055,477.912,25.879
09:00:00 11/02/2009,6.061,477.039,24.711
09:00:00 12/02/2009,6.068,475.469,23.897
09:00:00 13/02/2009,6.076,474.638,23.357
09:00:00 14/02/2009,6.084,471.811,23.098
09:00:00 15/02/2009,6.098,466.628,23.437
09:00:00 16/02/2009,6.117,458.459,23.513
09:00:00 17/02/2009,6.136,447.868,24.151
09:00:00 18/02/2009,6.148,439.157,24.076
09:00:00 19/02/2009,6.158,429.977,24.451
09:00:00 20/02/2009,6.153,426.498,24.027
09:00:00 21/02/2009,6.156,423.77,24.707
09:00:00 22/02/2009,6.142,424.407,24.067
09:00:00 23/02/2009,6.136,423.196,23.781
09:00:00 24/02/2009,6.127,423.628,24.066
09:00:00 25/02/2009,6.134,424.987,23.805
09:00:00 26/02/2009,6.132,426.19,23.738
09:00:00 27/02/2009,6.133,426.633,23.517
09:00:00 28/02/2009,6.134,428.828,24.0
09:00:00 01/03/2009,6.146,428.887,24.267
09:00:00 02/03/2009,6.152,429.179,23.597
09:00:00 03/03/2009,6.16,430.086,23.301
09:00:00 04/03/2009,6.146,427.914,23.025
09:00:00 05/03/2009,6.159,425.566,22.471
09:00:00 06/03/2009,6.161,426.837,22.136
09:00:00 07/03/2009,6.149,423.524,21.999
09:00:00 08/03/2009,6.134,418.309,22.155
09:00:00 09/03/2009,6.123,418.412,22.221
09:00:00 10/03/2009,6.11,421.295,22.266
09:00:00 11/03/2009,6.109,424.001,22.263
09:00:00 12/03/2009,6.102,426.795,22.426
09:00:00 13/03/2009,6.103,427.7,23.318
09:00:00 14/03/2009,6.101,426.386,22.767
09:00:00 15/03/2009,6.088,421.674,22.762
09:00:00 16/03/2009,6.096,422.239,22.205
09:00:00 17/03/2009,6.102,425.071,21.486
09:00:00 18/03/2009,6.106,424.864,21.297
09:00:00 19/03/2009,6.104,423.205,21.02
09:00:00 20/03/2009,6.095,422.342,21.35
09:00:00 21/03/2009,6.103,420.97,21.637
09:00:00 22/03/2009,6.087,424.021,21.656
09:00:00 23/03/2009,6.096,428.937,21.893
09:00:00 24/03/2009,6.098,431.243,21.537
09:00:00 25/03/2009,6.094,434.311,21.277
09:00:00 26/03/2009,6.09,437.729,21.38
09:00:00 27/03/2009,6.096,434.597,21.915
09:00:00 28/03/2009,6.094,436.032,21.298
09:00:00 29/03/2009,6.089,435.427,20.745
09:00:00 30/03/2009,6.091,433.088,21.016
09:00:00 31/03/2009,6.088,431.419,21.193
09:00:00 01/04/2009,6.085,429.92,20.966
09:00:00 02/04/2009,6.083,431.636,21.476
09:00:00 03/04/2009,6.101,432.391,21.145
09:00:00 04/04/2009,6.102,433.483,21.473
09:00:00 05/04/2009,6.105,435.205,20.993
09:00:00 06/04/2009,6.102,437.758,20.589
09:00:00 07/04/2009,6.095,440.57,20.088
09:00:00 08/04/2009,6.076,443.055,19.68
09:00:00 09/04/2009,6.063,442.537,19.647
09:00:00 10/04/2009,6.055,443.388,19.436
09:00:00 11/04/2009,6.058,442.156,19.584
09:00:00 12/04/2009,6.069,443.521,19.258
09:00:00 13/04/2009,6.079,445.812,19.094
09:00:00 14/04/2009,6.083,446.281,19.089
09:00:00 15/04/2009,6.083,446.432,19.006
09:00:00 16/04/2009,6.082,446.301,19.2
09:00:00 17/04/2009,6.072,447.256,18.993
09:00:00 18/04/2009,6.073,448.729,18.792
09:00:00 19/04/2009,6.073,447.035,18.965
09:00:00 20/04/2009,6.072,445.72,18.875
09:00:00 21/04/2009,6.07,444.343,18.486
09:00:00 22/04/2009,6.065,443.159,18.469
09:00:00 23/04/2009,6.059,443.467,18.101
09:00:00 24/04/2009,6.063,440.383,17.98
09:00:00 25/04/2009,6.075,439.876,18.145
09:00:00 26/04/2009,6.089,439.605,17.849
09:00:00 27/04/2009,6.112,440.865,17.468
09:00:00 28/04/2009,6.13,441.798,17.259
09:00:00 29/04/2009,6.146,442.777,17.056
09:00:00 30/04/2009,6.149,444.79,16.894
09:00:00 01/05/2009,6.146,447.258,16.854
09:00:00 02/05/2009,6.146,447.608,17.066